Flag for Canada Weather past 2 weeks in Inuvik, Northwest Territories, Canada

Now
43 °F

Light rain. Fog.


Feels Like: 43 °F
Forecast: 45 / 50 °F
Wind: No wind

Location: Inuvik

Current Time: Sep 5, 2015 at 7:08:56 AM

Latest Report: Sep 5, 2015 at 6:00 AM


Visibility: 2 mi

Pressure: 29.90 "Hg

Humidity: 100%

Dew point: 43 °F

Location of InuvikLocation

Historic Weather in Inuvik — Graph

°F

Inuvik temperature yesterday

Maximum temperature yesterday: 46 °F (at 4:00 PM)
Minimum temperature yesterday: 37 °F (at 3:00 AM)
Average temperature yesterday: 42 °F

Past Weeks' High & Low Weather Summary

 TemperatureHumidityPressure
High66 °F (Aug 26, 4:00 PM)100% (Aug 24, 5:00 AM)30.28 "Hg (Aug 24, 5:00 AM)
Low32 °F (Sep 3, 2:00 AM)37% (Aug 22, 7:00 PM)29.23 "Hg (Aug 31, 1:00 AM)
Average45 °F83%29.83 "Hg
* Reported Aug 21 6:00 AM — Sep 5 6:00 AM, Inuvik, Weather by CustomWeather, © 2015

Note: Actual official high and low records may vary slightly from our data, if they occured in-between our weather recording intervals... More about our weather records

Advertising

Inuvik weather history for previous 24 hours

 ConditionsComfort  
Time TempWeatherWind HumidityBarometerVisibility
6:00 AM
Sat, Sep 5
43 °FLight rain. Fog.No wind100%29.90 "Hg2 mi
5:00 AM43 °FLight rain. Fog.No wind100%29.91 "Hg2 mi
4:00 AM43 °FLight rain. Fog.No wind100%29.91 "Hg2 mi
3:00 AM43 °FDrizzle. Fog.No wind100%29.91 "Hg1 mi
2:00 AM43 °FFog.3 mph100%29.91 "Hg1 mi
1:00 AM43 °FFog.3 mph100%29.92 "Hg3 mi
12:00 AM45 °FDrizzle. Fog.2 mph93%29.93 "Hg1 mi
11:00 PM
Fri, Sep 4
45 °FDrizzle. Fog.3 mph100%29.93 "Hg1 mi
10:00 PM45 °FDrizzle. Fog.3 mph100%29.94 "Hg1 mi
9:54 PM45 °FDrizzle. Fog.2 mph100%29.94 "Hg1 mi
9:00 PM46 °FDrizzle. More clouds than sun.2 mph93%29.95 "Hg2 mi
8:00 PM46 °FDrizzle. Mostly cloudy.3 mph93%29.96 "Hg3 mi
7:00 PM46 °FDrizzle. More clouds than sun.3 mph87%29.97 "Hg3 mi
6:00 PM46 °FDrizzle. More clouds than sun.5 mph87%29.98 "Hg3 mi
5:00 PM46 °FDrizzle. Mostly cloudy.7 mph87%29.99 "Hg2 mi
4:00 PM46 °FDrizzle. Fog.5 mph87%30.00 "Hg6 mi
3:00 PM45 °FDrizzle. Fog.2 mph93%30.01 "Hg6 mi
2:00 PM43 °FLight rain. Fog.5 mph93%30.02 "Hg6 mi
1:00 PM43 °FLight rain. Fog.5 mph93%30.03 "Hg6 mi
12:00 PM41 °FLight rain. Fog.8 mph93%30.05 "Hg8 mi
11:00 AM41 °FLight rain. Fog.8 mph93%30.06 "Hg8 mi
10:00 AM39 °FLight rain. Fog.6 mph93%30.08 "Hg8 mi
9:00 AM37 °FLight rain. Fog.6 mph100%30.09 "Hg8 mi
8:00 AM37 °FLight rain. Fog.6 mph100%30.11 "Hg3 mi
7:00 AM37 °FLight rain. Fog.7 mph93%30.12 "Hg3 mi
Weather by CustomWeather, © 2015

See weather overviewHow to use our weather pages